GW0484 Weather Reports


Display with metric or nautical units.
time (UTC)temp
F
wind
direction
speed
MPH
gust
MPH
rain 1hr
in
rain 24hr
in
rain mn
in
humidity
%
barometer
mb
20260508080454 46 77 2.0 2.0 0.00 0.00 0.00 80 1008.8
20260508075950 48 194 2.0 2.0 0.00 0.00 0.00 78 1008.9
20260508075447 46 157 2.0 2.0 0.00 0.00 0.00 81 1008.3
20260508074945 46 146 0.0 0.0 0.00 0.00 0.00 79 1008.9
20260508074443 45 129 0.0 0.0 0.00 0.00 0.00 80 1008.6
20260508073939 45 129 0.0 0.0 0.00 0.00 0.00 80 1008.7
20260508073437 46 144 0.0 0.0 0.00 0.00 0.00 80 1008.6
20260508072934 46 158 0.0 1.0 0.00 0.00 0.00 79 1009.0
20260508072430 47 197 3.0 3.0 0.00 0.00 0.00 78 1008.6
20260508071927 48 263 3.0 3.0 0.00 0.00 0.00 77 1009.0
20260508071425 48 242 3.0 3.0 0.00 0.00 0.00 77 1008.7
20260508070923 47 239 7.0 7.0 0.00 0.00 0.00 78 1008.7
20260508070420 46 108 0.0 0.0 0.00 0.00 0.00 81 1008.6
20260508065918 46 103 0.0 0.0 0.00 0.00 0.00 80 1008.6
20260508065416 48 72 1.0 1.0 0.00 0.00 0.00 77 1008.4
20260508064914 48 322 3.0 3.0 0.00 0.00 0.00 78 1008.7
20260508064411 47 313 5.0 6.0 0.00 0.00 0.00 79 1008.7
20260508063909 43 52 1.0 1.0 0.00 0.00 0.00 83 1008.7
20260508063406 44 119 0.0 0.0 0.00 0.00 0.00 83 1008.6
20260508062903 44 120 0.0 0.0 0.00 0.00 0.00 82 1008.3
20260508062401 45 122 0.0 0.0 0.00 0.00 0.00 81 1008.2
20260508061858 45 120 0.0 0.0 0.00 0.00 0.00 82 1008.4
20260508061355 45 127 0.0 0.0 0.00 0.00 0.00 80 1008.6
20260508060851 47 119 0.0 1.0 0.00 0.00 0.00 78 1008.3
20260508060349 46 141 1.0 2.0 0.00 0.00 0.00 80 1008.1
20260508055844 46 112 0.0 0.0 0.00 0.00 0.00 81 1008.2
20260508055342 47 98 0.0 0.0 0.00 0.00 0.00 80 1008.3
20260508054838 47 104 0.0 0.0 0.00 0.00 0.00 80 1008.1
20260508054336 47 114 0.0 0.0 0.00 0.00 0.00 80 1008.1
20260508053832 48 101 2.0 3.0 0.00 0.00 0.00 79 1008.3
20260508053330 48 104 0.0 0.0 0.00 0.00 0.00 78 1008.2
20260508052827 48 114 0.0 1.0 0.00 0.00 0.00 78 1008.1
20260508052324 48 95 0.0 0.0 0.00 0.00 0.00 79 1008.2
20260508051820 49 67 3.0 3.0 0.00 0.00 0.00 77 1008.4
20260508051316 51 123 0.0 0.0 0.00 0.00 0.00 74 1008.2
20260508050812 52 295 0.0 1.0 0.00 0.00 0.00 72 1008.1
20260508050310 53 283 6.0 7.0 0.00 0.00 0.00 70 1008.3
20260508045805 53 266 4.0 5.0 0.00 0.00 0.00 72 1008.1
20260508045306 53 229 4.0 5.0 0.00 0.00 0.00 73 1008.3
20260508044801 53 243 3.0 3.0 0.00 0.00 0.00 73 1008.2
20260508044257 54 265 4.0 5.0 0.00 0.00 0.00 72 1008.0
20260508043753 55 265 4.0 5.0 0.00 0.00 0.00 70 1007.9
20260508043251 55 270 5.0 6.0 0.00 0.00 0.00 70 1008.0
20260508042747 56 261 5.0 6.0 0.00 0.00 0.00 68 1007.9
20260508042245 56 261 5.0 6.0 0.00 0.00 0.00 67 1008.0
20260508041741 57 246 6.0 7.0 0.00 0.00 0.00 67 1008.0
20260508041238 58 277 7.0 8.0 0.00 0.00 0.00 65 1008.2
20260508040734 58 285 8.0 9.0 0.00 0.00 0.00 64 1008.1
20260508040232 59 246 8.0 9.0 0.00 0.00 0.00 63 1008.0
20260508035729 59 293 7.0 8.0 0.00 0.00 0.00 63 1008.2
20260508035226 58 286 6.0 7.0 0.00 0.00 0.00 64 1008.2
20260508034723 59 268 7.0 9.0 0.00 0.00 0.00 63 1008.1
20260508034220 59 238 5.0 6.0 0.00 0.00 0.00 60 1008.2
20260508033717 59 298 5.0 6.0 0.00 0.00 0.00 59 1008.2
20260508033216 59 284 4.0 6.0 0.00 0.00 0.00 59 1008.4
20260508032713 59 294 5.0 6.0 0.00 0.00 0.00 59 1008.0
20260508032209 60 245 7.0 8.0 0.00 0.00 0.00 58 1008.2
20260508031706 60 295 10.0 13.0 0.00 0.00 0.00 59 1007.8
20260508031202 59 287 8.0 11.0 0.00 0.00 0.00 61 1008.0
20260508030659 60 292 6.0 7.0 0.00 0.00 0.00 60 1008.0
20260508030157 61 257 7.0 8.0 0.00 0.00 0.00 59 1007.7
20260508025653 60 312 12.0 16.0 0.00 0.00 0.00 59 1007.7
20260508025150 59 304 4.0 5.0 0.00 0.00 0.00 59 1007.7
20260508024646 59 294 6.0 8.0 0.00 0.00 0.00 59 1007.7
20260508024143 59 263 4.0 5.0 0.00 0.00 0.00 59 1007.5
20260508023639 59 256 6.0 8.0 0.00 0.00 0.00 59 1007.5
20260508023137 58 248 5.0 5.0 0.00 0.00 0.00 58 1007.2
20260508022632 59 244 5.0 6.0 0.00 0.00 0.00 57 1007.0
20260508022130 60 230 4.0 5.0 0.00 0.00 0.00 56 1007.1
20260508021626 59 235 4.0 5.0 0.00 0.00 0.00 57 1007.0
20260508021121 61 229 3.0 3.0 0.00 0.00 0.00 56 1007.0
20260508020620 62 227 4.0 5.0 0.00 0.00 0.00 56 1007.1
20260508020117 62 199 3.0 3.0 0.00 0.00 0.00 55 1006.9
20260508015614 63 209 4.0 5.0 0.00 0.00 0.00 55 1006.9
20260508015111 64 246 4.0 5.0 0.00 0.00 0.00 54 1006.9
20260508014607 65 230 5.0 6.0 0.00 0.00 0.00 53 1007.0
20260508014104 66 231 5.0 7.0 0.00 0.00 0.00 53 1006.7
20260508013600 66 262 5.0 7.0 0.00 0.00 0.00 53 1006.6
20260508013057 66 272 5.0 6.0 0.00 0.00 0.00 53 1006.8
20260508012554 66 268 7.0 7.0 0.00 0.00 0.00 52 1006.9
20260508012052 66 280 7.0 7.0 0.00 0.00 0.00 52 1006.7
20260508011550 66 269 4.0 5.0 0.00 0.00 0.00 52 1006.8
20260508011047 66 277 6.0 7.0 0.00 0.00 0.00 52 1006.7
20260508010543 66 256 3.0 3.0 0.00 0.00 0.00 56 1006.6
20260508010041 66 112 0.0 0.0 0.00 0.00 0.00 58 1006.8
20260508005537 65 117 0.0 0.0 0.00 0.00 0.00 57 1006.9
20260508005034 63 121 0.0 0.0 0.00 0.00 0.00 61 1006.7
20260508004530 63 108 0.0 0.0 0.00 0.00 0.00 59 1007.2
20260508004027 63 99 1.0 1.0 0.00 0.00 0.00 58 1007.2
20260508003523 62 109 1.0 2.0 0.00 0.00 0.00 61 1007.5
20260508003021 66 295 15.0 17.0 0.00 0.00 0.00 61 1007.6
20260508002517 66 282 9.0 13.0 0.00 0.00 0.00 54 1007.0
20260508002015 66 270 13.0 15.0 0.00 0.00 0.00 54 1006.9
20260508001510 66 254 15.0 18.0 0.00 0.00 0.00 53 1006.8
20260508001007 66 241 11.0 14.0 0.00 0.00 0.00 54 1006.6
20260508000503 66 237 14.0 16.0 0.00 0.00 0.00 55 1006.7
20260508000000 67 258 20.0 23.0 0.00 0.00 0.00 56 1006.8
20260507235456 67 258 16.0 17.0 0.00 0.00 0.00 52 1006.8
20260507234954 68 250 16.0 16.0 0.00 0.00 0.00 52 1006.7
20260507234450 68 232 10.0 14.0 0.00 0.00 0.00 47 1006.5
20260507233949 68 235 11.0 11.0 0.00 0.00 0.00 48 1006.3
20260507233444 68 235 9.0 10.0 0.00 0.00 0.00 48 1006.6
20260507232942 68 230 8.0 10.0 0.00 0.00 0.00 48 1006.6
20260507232438 69 227 4.0 5.0 0.00 0.00 0.00 45 1006.5
20260507231936 70 266 6.0 7.0 0.00 0.00 0.00 46 1006.7
20260507231432 68 38 2.0 3.0 0.00 0.00 0.00 46 1006.7
20260507230929 68 166 3.0 5.0 0.00 0.00 0.00 48 1006.7
20260507230426 68 47 5.0 7.0 0.00 0.00 0.00 48 1006.8
20260507225926 67 206 3.0 3.0 0.00 0.00 0.00 50 1006.8
20260507225423 67 261 8.0 10.0 0.00 0.00 0.00 50 1006.6
20260507224919 68 208 6.0 7.0 0.00 0.00 0.00 48 1006.3
20260507224415 68 299 11.0 11.0 0.00 0.00 0.00 44 1006.5
20260507223912 68 255 12.0 14.0 0.00 0.00 0.00 44 1006.3
20260507223408 69 340 4.0 5.0 0.00 0.00 0.00 44 1006.5
20260507222905 69 297 9.0 10.0 0.00 0.00 0.00 44 1006.7
20260507222401 69 273 8.0 9.0 0.00 0.00 0.00 44 1006.6
20260507221859 69 304 11.0 13.0 0.00 0.00 0.00 44 1006.9
20260507221355 71 45 2.0 3.0 0.00 0.00 0.00 43 1006.8
20260507220851 69 327 8.0 9.0 0.00 0.00 0.00 44 1006.7
20260507220349 68 267 4.0 5.0 0.00 0.00 0.00 45 1006.9
20260507215845 69 152 2.0 2.0 0.00 0.00 0.00 45 1006.6
20260507215342 69 69 2.0 5.0 0.00 0.00 0.00 45 1006.9
20260507214839 69 303 5.0 9.0 0.00 0.00 0.00 45 1006.9
20260507214337 69 330 5.0 14.0 0.00 0.00 0.00 45 1006.8
20260507213832 69 306 9.0 10.0 0.00 0.00 0.00 45 1006.9
20260507213329 69 131 1.0 2.0 0.00 0.00 0.00 45 1007.0
20260507212826 69 326 7.0 9.0 0.00 0.00 0.00 44 1007.1
20260507212321 70 319 6.0 8.0 0.00 0.00 0.00 44 1006.9
20260507211818 69 301 3.0 3.0 0.00 0.00 0.00 44 1007.1
20260507211315 68 298 7.0 8.0 0.00 0.00 0.00 44 1007.1
20260507210812 68 129 1.0 2.0 0.00 0.00 0.00 46 1007.1
20260507210309 68 91 2.0 3.0 0.00 0.00 0.00 46 1007.1
20260507205805 68 21 5.0 7.0 0.00 0.00 0.00 46 1007.2
20260507205306 68 111 0.0 1.0 0.00 0.00 0.00 48 1007.3
20260507204758 68 356 5.0 8.0 0.00 0.00 0.00 45 1007.3
20260507204256 69 118 1.0 2.0 0.00 0.00 0.00 46 1007.1
20260507203754 69 148 0.0 2.0 0.00 0.00 0.00 45 1007.3
20260507203251 70 322 7.0 9.0 0.00 0.00 0.00 45 1007.2
20260507202748 69 285 11.0 13.0 0.00 0.00 0.00 46 1007.0
20260507202243 70 292 11.0 13.0 0.00 0.00 0.00 45 1007.2
20260507201738 69 336 8.0 10.0 0.00 0.00 0.00 46 1007.3
20260507201235 69 289 8.0 10.0 0.00 0.00 0.00 46 1007.0
20260507200731 68 63 3.0 5.0 0.00 0.00 0.00 47 1007.1
20260507200228 68 305 5.0 7.0 0.00 0.00 0.00 47 1007.3
20260507195724 67 357 9.0 11.0 0.00 0.00 0.00 48 1007.1
20260507195222 67 301 9.0 11.0 0.00 0.00 0.00 47 1007.0
20260507194719 67 303 10.0 13.0 0.00 0.00 0.00 47 1007.1
20260507194215 67 309 14.0 17.0 0.00 0.00 0.00 46 1007.1
20260507193711 69 59 5.0 9.0 0.00 0.00 0.00 46 1007.0
20260507193208 68 325 8.0 9.0 0.00 0.00 0.00 48 1006.9
20260507192704 68 107 1.0 2.0 0.00 0.00 0.00 49 1007.1
20260507192201 68 305 8.0 9.0 0.00 0.00 0.00 47 1007.0
20260507191657 67 124 1.0 2.0 0.00 0.00 0.00 51 1007.0
20260507191154 67 17 4.0 5.0 0.00 0.00 0.00 47 1007.1
20260507190651 69 125 2.0 5.0 0.00 0.00 0.00 47 1007.1
20260507190150 70 328 7.0 8.0 0.00 0.00 0.00 46 1007.0
20260507185648 69 174 0.0 1.0 0.00 0.00 0.00 47 1007.0
20260507185144 69 103 0.0 1.0 0.00 0.00 0.00 48 1007.2
20260507184642 68 131 0.0 0.0 0.00 0.00 0.00 49 1007.1
20260507184140 69 250 13.0 14.0 0.00 0.00 0.00 45 1007.2
20260507183636 68 337 9.0 11.0 0.00 0.00 0.00 47 1007.3
20260507183133 69 33 4.0 9.0 0.00 0.00 0.00 48 1007.1
20260507182629 69 38 0.0 1.0 0.00 0.00 0.00 49 1007.1
20260507182126 68 306 6.0 8.0 0.00 0.00 0.00 48 1007.2
20260507181622 67 271 7.0 8.0 0.00 0.00 0.00 49 1007.1
20260507181118 67 136 0.0 1.0 0.00 0.00 0.00 50 1007.5
20260507180615 69 109 0.0 1.0 0.00 0.00 0.00 50 1007.5
20260507180112 68 139 1.0 2.0 0.00 0.00 0.00 50 1007.5
20260507175608 68 95 1.0 2.0 0.00 0.00 0.00 50 1007.7
20260507175106 67 318 4.0 9.0 0.00 0.00 0.00 51 1007.6
20260507174602 66 318 6.0 9.0 0.00 0.00 0.00 52 1007.5
20260507174100 66 303 4.0 7.0 0.00 0.00 0.00 51 1007.6
20260507173557 67 312 8.0 9.0 0.00 0.00 0.00 51 1007.9
20260507173054 68 122 1.0 2.0 0.00 0.00 0.00 51 1007.9
20260507172550 69 64 2.0 2.0 0.00 0.00 0.00 50 1007.6
20260507172047 66 133 2.0 2.0 0.00 0.00 0.00 52 1007.7
20260507171542 65 0 5.0 7.0 0.00 0.00 0.00 52 1007.8
20260507171040 66 47 1.0 2.0 0.00 0.00 0.00 53 1007.8
20260507170536 70 314 13.0 16.0 0.00 0.00 0.00 50 1007.7
20260507170034 68 324 9.0 13.0 0.00 0.00 0.00 51 1007.8
20260507165529 68 349 5.0 8.0 0.00 0.00 0.00 51 1007.6
20260507165026 68 101 0.0 1.0 0.00 0.00 0.00 51 1007.7
20260507164522 67 342 6.0 8.0 0.00 0.00 0.00 51 1007.9
20260507164019 66 306 8.0 13.0 0.00 0.00 0.00 52 1008.0
20260507163516 67 346 3.0 6.0 0.00 0.00 0.00 52 1007.8
20260507163015 67 111 1.0 1.0 0.00 0.00 0.00 52 1007.8
20260507162509 67 111 1.0 2.0 0.00 0.00 0.00 52 1007.6
20260507162006 66 283 3.0 5.0 0.00 0.00 0.00 53 1007.6
20260507161503 67 348 1.0 5.0 0.00 0.00 0.00 52 1007.7
20260507160959 65 348 3.0 6.0 0.00 0.00 0.00 54 1007.9
20260507160455 65 58 4.0 6.0 0.00 0.00 0.00 54 1007.7
20260507155951 64 9 0.0 1.0 0.00 0.00 0.00 54 1007.7
20260507155447 63 226 5.0 6.0 0.00 0.00 0.00 55 1007.7
20260507154944 63 122 0.0 0.0 0.00 0.00 0.00 55 1008.2
20260507154441 63 69 3.0 3.0 0.00 0.00 0.00 55 1007.8
20260507153938 62 158 1.0 2.0 0.00 0.00 0.00 55 1007.8
20260507153435 62 187 2.0 2.0 0.00 0.00 0.00 56 1008.0
20260507152931 62 142 1.0 2.0 0.00 0.00 0.00 55 1008.0
20260507152427 61 141 0.0 0.0 0.00 0.00 0.00 56 1008.0
20260507151923 62 153 2.0 2.0 0.00 0.00 0.00 57 1007.9
20260507151420 60 60 0.0 0.0 0.00 0.00 0.00 59 1008.1
20260507150917 58 63 0.0 1.0 0.00 0.00 0.00 60 1008.2
20260507150414 58 103 0.0 0.0 0.00 0.00 0.00 61 1008.2
20260507145910 57 96 0.0 0.0 0.00 0.00 0.00 61 1008.2
20260507145406 57 340 2.0 2.0 0.00 0.00 0.00 60 1008.2
20260507144903 57 24 2.0 3.0 0.00 0.00 0.00 61 1008.2
20260507144400 57 306 6.0 8.0 0.00 0.00 0.00 61 1008.3
20260507143857 55 326 5.0 6.0 0.00 0.00 0.00 62 1008.2
20260507143354 54 303 5.0 7.0 0.00 0.00 0.00 62 1008.1
20260507142851 53 286 3.0 3.0 0.00 0.00 0.00 63 1008.7
20260507142347 52 328 3.0 5.0 0.00 0.00 0.00 63 1008.2
20260507141844 52 317 6.0 6.0 0.00 0.00 0.00 64 1008.3
20260507141340 51 305 6.0 7.0 0.00 0.00 0.00 64 1008.0
20260507140837 51 52 2.0 3.0 0.00 0.00 0.00 65 1008.0
20260507140334 50 318 3.0 5.0 0.00 0.00 0.00 65 1008.0
20260507135832 50 320 3.0 3.0 0.00 0.00 0.00 66 1007.9
20260507135328 49 19 1.0 2.0 0.00 0.00 0.00 67 1007.8
20260507134826 48 104 1.0 1.0 0.00 0.00 0.00 67 1007.9
20260507134322 48 109 0.0 0.0 0.00 0.00 0.00 67 1007.9
20260507133817 48 115 0.0 1.0 0.00 0.00 0.00 67 1007.8
20260507133313 47 112 0.0 0.0 0.00 0.00 0.00 68 1007.7
20260507132812 47 303 3.0 7.0 0.00 0.00 0.00 67 1008.0
20260507132308 46 114 0.0 0.0 0.00 0.00 0.00 69 1007.8
20260507131805 46 110 0.0 0.0 0.00 0.00 0.00 68 1007.9
20260507131302 46 20 2.0 2.0 0.00 0.00 0.00 68 1007.8
20260507130759 46 120 0.0 0.0 0.00 0.00 0.00 68 1007.5
20260507130256 44 121 0.0 0.0 0.00 0.00 0.00 69 1007.6
20260507125755 44 108 0.0 0.0 0.00 0.00 0.00 70 1007.5
20260507125252 43 110 0.0 1.0 0.00 0.00 0.00 70 1007.5
20260507124749 43 99 1.0 1.0 0.00 0.00 0.00 70 1007.5
20260507124245 42 103 0.0 1.0 0.00 0.00 0.00 69 1007.3
20260507123744 41 29 6.0 7.0 0.00 0.00 0.00 70 1007.2
20260507123241 41 97 1.0 2.0 0.00 0.00 0.00 70 1007.3
20260507122736 40 87 1.0 2.0 0.00 0.00 0.00 70 1006.9
20260507122232 40 112 1.0 2.0 0.00 0.00 0.00 69 1007.0
20260507121728 40 120 0.0 0.0 0.00 0.00 0.00 69 1007.1
20260507121224 40 93 1.0 2.0 0.00 0.00 0.00 69 1006.9
20260507120721 40 127 0.0 0.0 0.00 0.00 0.00 68 1006.9
20260507120218 41 113 0.0 0.0 0.00 0.00 0.00 67 1006.9
20260507115714 40 103 0.0 0.0 0.00 0.00 0.00 67 1006.9
20260507115210 41 124 0.0 0.0 0.00 0.00 0.00 67 1006.7
20260507114705 41 115 0.0 0.0 0.00 0.00 0.00 67 1006.8
20260507114203 41 123 0.0 0.0 0.00 0.00 0.00 67 1006.7
20260507113700 42 76 0.0 0.0 0.00 0.00 0.00 66 1006.7
20260507113157 42 95 0.0 0.0 0.00 0.00 0.00 67 1007.0
20260507112655 42 120 0.0 0.0 0.00 0.00 0.00 67 1006.7
20260507112152 43 113 0.0 0.0 0.00 0.00 0.00 67 1006.7
20260507111649 43 162 0.0 0.0 0.00 0.00 0.00 67 1006.6
20260507111145 43 21 4.0 5.0 0.00 0.00 0.00 66 1006.6
20260507110641 45 104 0.0 0.0 0.00 0.00 0.00 64 1006.3
20260507110138 45 206 3.0 3.0 0.00 0.00 0.00 63 1006.5
20260507105635 44 43 6.0 7.0 0.00 0.00 0.00 64 1006.6
20260507105131 44 285 2.0 2.0 0.00 0.00 0.00 65 1006.4
20260507104629 44 23 3.0 5.0 0.00 0.00 0.00 66 1006.4
20260507104125 43 24 5.0 6.0 0.00 0.00 0.00 67 1006.5
20260507103621 41 8 12.0 13.0 0.00 0.00 0.00 70 1006.3
20260507103118 42 89 1.0 2.0 0.00 0.00 0.00 69 1006.1
20260507102614 41 171 1.0 1.0 0.00 0.00 0.00 69 1006.0
20260507102111 41 231 5.0 6.0 0.00 0.00 0.00 68 1005.9
20260507101607 41 210 3.0 3.0 0.00 0.00 0.00 69 1006.0
20260507101103 41 206 3.0 3.0 0.00 0.00 0.00 69 1006.0
20260507100600 41 156 0.0 0.0 0.00 0.00 0.00 69 1006.3
20260507100058 41 164 1.0 1.0 0.00 0.00 0.00 69 1006.6
20260507095556 41 126 0.0 0.0 0.00 0.00 0.00 69 1006.5
20260507095052 42 118 0.0 0.0 0.00 0.00 0.00 68 1006.4
20260507094548 43 141 0.0 1.0 0.00 0.00 0.00 67 1006.3
20260507094046 43 116 0.0 0.0 0.00 0.00 0.00 67 1006.0
20260507093543 42 103 0.0 0.0 0.00 0.00 0.00 68 1005.7
20260507093042 43 112 0.0 0.0 0.00 0.00 0.00 67 1006.0
20260507092537 41 119 0.0 0.0 0.00 0.00 0.00 68 1005.7
20260507092034 41 115 0.0 0.0 0.00 0.00 0.00 67 1006.0
20260507091531 41 108 0.0 0.0 0.00 0.00 0.00 66 1005.9
20260507091028 42 110 0.0 0.0 0.00 0.00 0.00 66 1005.9
20260507090523 42 94 0.0 0.0 0.00 0.00 0.00 66 1005.4
20260507090020 42 27 3.0 3.0 0.00 0.00 0.00 64 1005.7
20260507085517 43 22 3.0 3.0 0.00 0.00 0.00 64 1005.6
20260507085014 44 14 2.0 2.0 0.00 0.00 0.00 63 1005.6
20260507084511 45 300 2.0 2.0 0.00 0.00 0.00 63 1005.4
20260507084008 45 105 0.0 1.0 0.00 0.00 0.00 61 1005.3
20260507083504 45 6 1.0 2.0 0.00 0.00 0.00 62 1005.3
20260507083001 44 275 5.0 6.0 0.00 0.00 0.00 62 1005.3
20260507082457 44 65 0.0 0.0 0.00 0.00 0.00 63 1005.2
20260507081953 44 116 0.0 0.0 0.00 0.00 0.00 63 1005.3
20260507081449 45 72 0.0 0.0 0.00 0.00 0.00 63 1005.2